This is the latest recevied weather packets stored in our database for station/object XW7RMR. If no packets are shown the sender has not sent any weather packets the latest 10 day(s).
| Time | Temp. | Humidity | Pressure | Rain* | Wind** | Luminosity | Snow |
|---|---|---|---|---|---|---|---|
| 1777989352 | 11.67° C | 91% | 1014.4 hPa | 0 mm | - | 30 W/m² | - |
| 1777989049 | 11.67° C | 91% | 1014.2 hPa | 0 mm | - | 30 W/m² | - |
| 1777988744 | 11.67° C | 91% | 1014.1 hPa | 0 mm | - | 26 W/m² | - |
| 1777988442 | 11.11° C | 92% | 1014.2 hPa | 0 mm | - | 22 W/m² | - |
| 1777988138 | 11.67° C | 92% | 1014.3 hPa | 0 mm | - | 20 W/m² | - |
| 1777987834 | 11.67° C | 92% | 1014.2 hPa | 0 mm | - | 15 W/m² | - |
| 1777987531 | 11.67° C | 92% | 1014 hPa | 0 mm | - | 12 W/m² | - |
| 1777987229 | 11.67° C | 91% | 1014.2 hPa | 0 mm | - | 10 W/m² | - |
| 1777986925 | 11.67° C | 91% | 1014.1 hPa | 0 mm | - | 8 W/m² | - |
| 1777986624 | 11.67° C | 91% | 1014.2 hPa | 0 mm | - | 6 W/m² | - |
| 1777986321 | 11.67° C | 91% | 1014.3 hPa | 0 mm | - | 4 W/m² | - |
| 1777986020 | 11.67° C | 91% | 1014.2 hPa | 0 mm | - | 3 W/m² | - |
| 1777985716 | 11.11° C | 91% | 1013.9 hPa | 0 mm | - | 2 W/m² | - |
| 1777985412 | 11.11° C | 91% | 1014.1 hPa | 0 mm | - | 1 W/m² | - |
| 1777985109 | 11.11° C | 92% | 1013.9 hPa | 0 mm | - | 1 W/m² | - |
| 1777984806 | 11.11° C | 92% | 1013.8 hPa | 0 mm | - | 0 W/m² | - |
| 1777984502 | 11.11° C | 92% | 1014 hPa | 0 mm | - | 0 W/m² | - |
| 1777984198 | 11.11° C | 92% | 1013.8 hPa | 0 mm | - | 0 W/m² | - |
| 1777983895 | 11.11° C | 91% | 1014 hPa | 0 mm | - | 0 W/m² | - |
| 1777983592 | 11.11° C | 91% | 1014.1 hPa | 0 mm | - | 0 W/m² | - |
| 1777983289 | 11.11° C | 91% | 1014.1 hPa | 0 mm | - | 0 W/m² | - |
| 1777982985 | 11.11° C | 91% | 1014.1 hPa | 0 mm | - | 0 W/m² | - |
| 1777982682 | 11.11° C | 91% | 1014 hPa | 0 mm | - | 0 W/m² | - |
| 1777982381 | 11.11° C | 91% | 1014 hPa | 0 mm | - | 0 W/m² | - |
| 1777982077 | 11.11° C | 92% | 1013.9 hPa | 0 mm | - | 0 W/m² | - |
* Rain latest hour (hover to see other rain measurements)
** Current wind speed in m/s (hover to see current wind gust speed)